User: anonymous   Login
Location: Festilli
(46.4000°N, 11.6667°E)
Time: 14:30:02
(UTC+00:00)
Language:

Lacrosse 4 Rocket - Orbit

View from above orbital plane
View from above orbital plane
View from above satellite
View from above satellite

Ground track
Ground track

The orbit data is extracted from the following two-line orbital elements,

1 26474U 00047B   21137.60278381  .00000175  00000-0  25966-4 0  9998
2 26474  67.9943 235.8000 0057223 194.9810 164.9641 14.96145414129228
Epoch (UTC): 17 May 2021 14:28:00
Eccentricity: 0.0057223
inclination: 67.9943°
perigee height: 539 km
apogee height: 618 km
right ascension of ascending node: 235.8000°
argument of perigee: 194.9810°
revolutions per day: 14.96145414
mean anomaly at epoch: 164.9641°
orbit number at epoch: 12922

The dashed part of the orbit path shows where the satellite is in the earth's shadow,  

DLR